Daniel Oduber Quiros International Airport

Jump to: basic info | weather | frequencies | runways | comments

Related pages: nearby airports | nearby navaids | notams | map

Basic information (top)

Codes: LIR MRLB
Location: lon 10.593300, lat -85.544403, elev 270 ft / 82 m msl
Status: medium_airport
Scheduled airline service: yes
Links: Wikipedia Mobile

Weather (top)

Current conditions (rec'd 2014/11/24 02:00Z):

MRLB 240200Z 12002KT 9999 SCT035 26/24 A2983

Airport forecast (rec'd 2014/11/23 00:12Z):

TAF TAF MRLB 232300Z 2400/2424 26007KT 9999 FEW035 SCT120 TX33/2419Z TN22/2412Z 
      TEMPO 2400/2404 5000 RA FEW020TCU 
      TEMPO 2410/2414 0500 FG VV/// 
      BECMG 2415/2416 12007KT CAVOK 
      BECMG 2420/2422 26008KT

Frequencies (top)

Verify before use: may be inaccurate or out of date.

APP: 119.8 MHz (LIBERIA APP)
GND: 121.7 MHz (GND)
RDO: 126.8 MHz (COCO RDO)
TWR: 118.8 MHz (LIBERIA TWR)

Runways (top)

07/25: 9,022 x 148 ft (2,750 x 45 m) — paved — lighted

Latest comments (top)

Great Facility but: Make sure you either speak fluent ... [read]

Terminal building: Nice new facility opened in 2011 [read]

More... (top)

See also NOTAMs and nearby airports and navaids, or visit the Daniel Oduber Quiros International Airport page at the main OurAirports website..